Location: OLV Amersfoort
(52.1552°N, 5.3872°E)
Time: 16:44:35

ISS - Visible Passes

Search period start: 27 October 2016 00:00
Search period end: 05 November 2016 23:00
Orbit: 400 x 408 km, 51.6° (Epoch: 27 October)

Date Brightness Start Highest point End Pass type
(mag) Time Alt. Az. Time Alt. Az. Time Alt. Az.
02 Nov -0.4 06:42:58 10° S 06:45:14 18° SE 06:47:31 10° E visible
03 Nov -0.2 05:51:54 10° SSE 05:53:01 11° SE 05:54:07 10° ESE visible
04 Nov -1.5 06:33:34 10° SSW 06:36:27 29° SSE 06:39:21 10° E visible
05 Nov -0.9 05:42:01 12° S 05:44:07 20° SE 05:46:36 10° E visible
